HST 1 20580U 90037B 25101.42205096 .00009859 00000-0 38267-3 0 9991 2 20580 28.4673 137.1977 0002299 84.3585 275.7272 15.24369897722486 ISS (ZARYA) 1 25544U 98067A 25102.16447026 .00014053 00000-0 25849-3 0 9994 2 25544 51.6359 274.0371 0005100 32.6107 327.5195 15.49465106504923 CXO 1 25867U 99040B 25103.32514594 .00000835 00000-0 00000-0 0 9990 2 25867 48.0761 132.8939 8519576 308.3942 0.0948 0.37812561 15696